﻿Timestamp,Irradiance (watts per m^2),,,,,,,,,,,
2020-08-01T00:05:00-04:00,-0.52,,,,,,,,,,,
2020-08-01T00:10:00-04:00,-0.86,,,,,,,,,,,
2020-08-01T00:15:00-04:00,-0.96,,,,,,,,,,,
2020-08-01T00:20:00-04:00,-1.6,,,,,,,,,,,
2020-08-01T00:25:00-04:00,-1.31,,,,,,,,,,,
2020-08-01T00:30:00-04:00,-1.07,,,,,,,,,,,
2020-08-01T00:35:00-04:00,-0.86,,,,,,,,,,,
2020-08-01T00:40:00-04:00,-1.02,,,,,,,,,,,
2020-08-01T00:45:00-04:00,-1.11,,,,,,,,,,,
2020-08-01T00:50:00-04:00,-0.64,,,,,,,,,,,
2020-08-01T00:55:00-04:00,-0.86,,,,,,,,,,,
2020-08-01T01:00:00-04:00,-0.63,,,,,,,,,,,
2020-08-01T01:05:00-04:00,-0.18,,,,,,,,,,,
2020-08-01T01:10:00-04:00,-0.71,,,,,,,,,,,
2020-08-01T01:15:00-04:00,-0.64,,,,,,,,,,,
2020-08-01T01:20:00-04:00,-0.61,,,,,,,,,,,
2020-08-01T01:25:00-04:00,-0.95,,,,,,,,,,,
2020-08-01T01:30:00-04:00,-1.47,,,,,,,,,,,
2020-08-01T01:35:00-04:00,-1.54,,,,,,,,,,,
2020-08-01T01:40:00-04:00,-1.35,,,,,,,,,,,
2020-08-01T01:45:00-04:00,-1.41,,,,,,,,,,,
2020-08-01T01:50:00-04:00,-1.16,,,,,,,,,,,
2020-08-01T01:55:00-04:00,0.14,,,,,,,,,,,
2020-08-01T02:00:00-04:00,-0.55,,,,,,,,,,,
2020-08-01T02:05:00-04:00,-0.56,,,,,,,,,,,
2020-08-01T02:10:00-04:00,-0.96,,,,,,,,,,,
2020-08-01T02:15:00-04:00,-1.15,,,,,,,,,,,
2020-08-01T02:20:00-04:00,-1.61,,,,,,,,,,,
2020-08-01T02:25:00-04:00,-1.5,,,,,,,,,,,
2020-08-01T02:30:00-04:00,-1.24,,,,,,,,,,,
2020-08-01T02:35:00-04:00,-1.39,,,,,,,,,,,
2020-08-01T02:40:00-04:00,-0.87,,,,,,,,,,,
2020-08-01T02:45:00-04:00,-0.84,,,,,,,,,,,
2020-08-01T02:50:00-04:00,-0.26,,,,,,,,,,,
2020-08-01T02:55:00-04:00,-0.89,,,,,,,,,,,
2020-08-01T03:00:00-04:00,-0.75,,,,,,,,,,,
2020-08-01T03:05:00-04:00,-1,,,,,,,,,,,
2020-08-01T03:10:00-04:00,-1.26,,,,,,,,,,,
2020-08-01T03:15:00-04:00,-0.73,,,,,,,,,,,
2020-08-01T03:20:00-04:00,0.3,,,,,,,,,,,
2020-08-01T03:25:00-04:00,-0.43,,,,,,,,,,,
2020-08-01T03:30:00-04:00,-0.44,,,,,,,,,,,
2020-08-01T03:35:00-04:00,-0.27,,,,,,,,,,,
2020-08-01T03:40:00-04:00,-0.99,,,,,,,,,,,
2020-08-01T03:45:00-04:00,-1.28,,,,,,,,,,,
2020-08-01T03:50:00-04:00,-1.31,,,,,,,,,,,
2020-08-01T03:55:00-04:00,-0.61,,,,,,,,,,,
2020-08-01T04:00:00-04:00,-0.8,,,,,,,,,,,
2020-08-01T04:05:00-04:00,-1.03,,,,,,,,,,,
2020-08-01T04:10:00-04:00,-0.44,,,,,,,,,,,
2020-08-01T04:15:00-04:00,-0.54,,,,,,,,,,,
2020-08-01T04:20:00-04:00,-0.88,,,,,,,,,,,
2020-08-01T04:25:00-04:00,-0.9,,,,,,,,,,,
2020-08-01T04:30:00-04:00,-1,,,,,,,,,,,
2020-08-01T04:35:00-04:00,-1.28,,,,,,,,,,,
2020-08-01T04:40:00-04:00,-0.8,,,,,,,,,,,
2020-08-01T04:45:00-04:00,-0.97,,,,,,,,,,,
2020-08-01T04:50:00-04:00,-0.73,,,,,,,,,,,
2020-08-01T04:55:00-04:00,-0.84,,,,,,,,,,,
2020-08-01T05:00:00-04:00,-1.22,,,,,,,,,,,
2020-08-01T05:05:00-04:00,-0.94,,,,,,,,,,,
2020-08-01T05:10:00-04:00,-0.54,,,,,,,,,,,
2020-08-01T05:15:00-04:00,-0.91,,,,,,,,,,,
2020-08-01T05:20:00-04:00,-0.86,,,,,,,,,,,
2020-08-01T05:25:00-04:00,-0.85,,,,,,,,,,,
2020-08-01T05:30:00-04:00,-0.46,,,,,,,,,,,
2020-08-01T05:35:00-04:00,-0.3,,,,,,,,,,,
2020-08-01T05:40:00-04:00,-0.11,,,,,,,,,,,
2020-08-01T05:45:00-04:00,1.35,,,,,,,,,,,
2020-08-01T05:50:00-04:00,2.62,,,,,,,,,,,
2020-08-01T05:55:00-04:00,4.63,,,,,,,,,,,
2020-08-01T06:00:00-04:00,21.19,,,,,,,,,,,
2020-08-01T06:05:00-04:00,63.32,,,,,,,,,,,
2020-08-01T06:10:00-04:00,111.76,,,,,,,,,,,
2020-08-01T06:15:00-04:00,161.71,,,,,,,,,,,
2020-08-01T06:20:00-04:00,218.14,,,,,,,,,,,
2020-08-01T06:25:00-04:00,38.67,,,,,,,,,,,
2020-08-01T06:30:00-04:00,327.74,,,,,,,,,,,
2020-08-01T06:35:00-04:00,383.9,,,,,,,,,,,
2020-08-01T06:40:00-04:00,425.26,,,,,,,,,,,
2020-08-01T06:45:00-04:00,464,,,,,,,,,,,
2020-08-01T06:50:00-04:00,500.1,,,,,,,,,,,
2020-08-01T06:55:00-04:00,531.87,,,,,,,,,,,
2020-08-01T07:00:00-04:00,565.21,,,,,,,,,,,
2020-08-01T07:05:00-04:00,594.94,,,,,,,,,,,
2020-08-01T07:10:00-04:00,620.53,,,,,,,,,,,
2020-08-01T07:15:00-04:00,647.74,,,,,,,,,,,
2020-08-01T07:20:00-04:00,672.91,,,,,,,,,,,
2020-08-01T07:25:00-04:00,695.86,,,,,,,,,,,
2020-08-01T07:30:00-04:00,716.15,,,,,,,,,,,
2020-08-01T07:35:00-04:00,736.23,,,,,,,,,,,
2020-08-01T07:40:00-04:00,753.04,,,,,,,,,,,
2020-08-01T07:45:00-04:00,768.34,,,,,,,,,,,
2020-08-01T07:50:00-04:00,784.17,,,,,,,,,,,
2020-08-01T07:55:00-04:00,800.44,,,,,,,,,,,
2020-08-01T08:00:00-04:00,819.85,,,,,,,,,,,
2020-08-01T08:05:00-04:00,833.91,,,,,,,,,,,
2020-08-01T08:10:00-04:00,846.77,,,,,,,,,,,
2020-08-01T08:15:00-04:00,859.73,,,,,,,,,,,
2020-08-01T08:20:00-04:00,871.4,,,,,,,,,,,
2020-08-01T08:25:00-04:00,884.65,,,,,,,,,,,
2020-08-01T08:30:00-04:00,891.68,,,,,,,,,,,
2020-08-01T08:35:00-04:00,898.87,,,,,,,,,,,
2020-08-01T08:40:00-04:00,904.51,,,,,,,,,,,
2020-08-01T08:45:00-04:00,913.02,,,,,,,,,,,
2020-08-01T08:50:00-04:00,919,,,,,,,,,,,
2020-08-01T08:55:00-04:00,920.96,,,,,,,,,,,
2020-08-01T09:00:00-04:00,926.59,,,,,,,,,,,
2020-08-01T09:05:00-04:00,936.64,,,,,,,,,,,
2020-08-01T09:10:00-04:00,938.71,,,,,,,,,,,
2020-08-01T09:15:00-04:00,942.94,,,,,,,,,,,
2020-08-01T09:20:00-04:00,947.24,,,,,,,,,,,
2020-08-01T09:25:00-04:00,953.31,,,,,,,,,,,
2020-08-01T09:30:00-04:00,957.03,,,,,,,,,,,
2020-08-01T09:35:00-04:00,960.99,,,,,,,,,,,
2020-08-01T09:40:00-04:00,959.4,,,,,,,,,,,
2020-08-01T09:45:00-04:00,962.08,,,,,,,,,,,
2020-08-01T09:50:00-04:00,963.96,,,,,,,,,,,
2020-08-01T09:55:00-04:00,966.43,,,,,,,,,,,
2020-08-01T10:00:00-04:00,962.96,,,,,,,,,,,
2020-08-01T10:05:00-04:00,971.68,,,,,,,,,,,
2020-08-01T10:10:00-04:00,972.02,,,,,,,,,,,
2020-08-01T10:15:00-04:00,974.11,,,,,,,,,,,
2020-08-01T10:20:00-04:00,973.26,,,,,,,,,,,
2020-08-01T10:25:00-04:00,973.47,,,,,,,,,,,
2020-08-01T10:30:00-04:00,973.63,,,,,,,,,,,
2020-08-01T10:35:00-04:00,973.85,,,,,,,,,,,
2020-08-01T10:40:00-04:00,972.67,,,,,,,,,,,
2020-08-01T10:45:00-04:00,972.19,,,,,,,,,,,
2020-08-01T10:50:00-04:00,970.88,,,,,,,,,,,
2020-08-01T10:55:00-04:00,969.34,,,,,,,,,,,
2020-08-01T11:00:00-04:00,967.54,,,,,,,,,,,
2020-08-01T11:05:00-04:00,968.39,,,,,,,,,,,
2020-08-01T11:10:00-04:00,969.24,,,,,,,,,,,
2020-08-01T11:15:00-04:00,969.46,,,,,,,,,,,
2020-08-01T11:20:00-04:00,966.1,,,,,,,,,,,
2020-08-01T11:25:00-04:00,963.49,,,,,,,,,,,
2020-08-01T11:30:00-04:00,963.25,,,,,,,,,,,
2020-08-01T11:35:00-04:00,963.55,,,,,,,,,,,
2020-08-01T11:40:00-04:00,963,,,,,,,,,,,
2020-08-01T11:45:00-04:00,961.96,,,,,,,,,,,
2020-08-01T11:50:00-04:00,961.97,,,,,,,,,,,
2020-08-01T11:55:00-04:00,959.66,,,,,,,,,,,
2020-08-01T12:00:00-04:00,963.32,,,,,,,,,,,
2020-08-01T12:05:00-04:00,963.25,,,,,,,,,,,
2020-08-01T12:10:00-04:00,962.3,,,,,,,,,,,
2020-08-01T12:15:00-04:00,961.66,,,,,,,,,,,
2020-08-01T12:20:00-04:00,963.61,,,,,,,,,,,
2020-08-01T12:25:00-04:00,962.94,,,,,,,,,,,
2020-08-01T12:30:00-04:00,958.84,,,,,,,,,,,
2020-08-01T12:35:00-04:00,958.19,,,,,,,,,,,
2020-08-01T12:40:00-04:00,952.77,,,,,,,,,,,
2020-08-01T12:45:00-04:00,953.49,,,,,,,,,,,
2020-08-01T12:50:00-04:00,978.35,,,,,,,,,,,
2020-08-01T12:55:00-04:00,970.46,,,,,,,,,,,
2020-08-01T13:00:00-04:00,976.75,,,,,,,,,,,
2020-08-01T13:05:00-04:00,857.81,,,,,,,,,,,
2020-08-01T13:10:00-04:00,1088.71,,,,,,,,,,,
2020-08-01T13:15:00-04:00,1036.51,,,,,,,,,,,
2020-08-01T13:20:00-04:00,1042.12,,,,,,,,,,,
2020-08-01T13:25:00-04:00,1007.98,,,,,,,,,,,
2020-08-01T13:30:00-04:00,984.32,,,,,,,,,,,
2020-08-01T13:35:00-04:00,961.83,,,,,,,,,,,
2020-08-01T13:40:00-04:00,965.55,,,,,,,,,,,
2020-08-01T13:45:00-04:00,981.11,,,,,,,,,,,
2020-08-01T13:50:00-04:00,999.07,,,,,,,,,,,
2020-08-01T13:55:00-04:00,998.2,,,,,,,,,,,
2020-08-01T14:00:00-04:00,1008.78,,,,,,,,,,,
2020-08-01T14:05:00-04:00,1109.5,,,,,,,,,,,
2020-08-01T14:10:00-04:00,342.37,,,,,,,,,,,
2020-08-01T14:15:00-04:00,352.59,,,,,,,,,,,
2020-08-01T14:20:00-04:00,298.09,,,,,,,,,,,
2020-08-01T14:25:00-04:00,241.1,,,,,,,,,,,
2020-08-01T14:30:00-04:00,186.05,,,,,,,,,,,
2020-08-01T14:35:00-04:00,140.21,,,,,,,,,,,
2020-08-01T14:40:00-04:00,102.74,,,,,,,,,,,
2020-08-01T14:45:00-04:00,70.11,,,,,,,,,,,
2020-08-01T14:50:00-04:00,48.65,,,,,,,,,,,
2020-08-01T14:55:00-04:00,40.05,,,,,,,,,,,
2020-08-01T15:00:00-04:00,32.92,,,,,,,,,,,
2020-08-01T15:05:00-04:00,26.48,,,,,,,,,,,
2020-08-01T15:10:00-04:00,22.82,,,,,,,,,,,
2020-08-01T15:15:00-04:00,23.34,,,,,,,,,,,
2020-08-01T15:20:00-04:00,22.53,,,,,,,,,,,
2020-08-01T15:25:00-04:00,23.69,,,,,,,,,,,
2020-08-01T15:30:00-04:00,46.87,,,,,,,,,,,
2020-08-01T15:35:00-04:00,107.5,,,,,,,,,,,
2020-08-01T15:40:00-04:00,140.25,,,,,,,,,,,
2020-08-01T15:45:00-04:00,174.39,,,,,,,,,,,
2020-08-01T15:50:00-04:00,166.53,,,,,,,,,,,
2020-08-01T15:55:00-04:00,193.67,,,,,,,,,,,
2020-08-01T16:00:00-04:00,195.11,,,,,,,,,,,
2020-08-01T16:05:00-04:00,122.23,,,,,,,,,,,
2020-08-01T16:10:00-04:00,101.6,,,,,,,,,,,
2020-08-01T16:15:00-04:00,118,,,,,,,,,,,
2020-08-01T16:20:00-04:00,103.6,,,,,,,,,,,
2020-08-01T16:25:00-04:00,97.95,,,,,,,,,,,
2020-08-01T16:30:00-04:00,127.21,,,,,,,,,,,
2020-08-01T16:35:00-04:00,103.58,,,,,,,,,,,
2020-08-01T16:40:00-04:00,125.69,,,,,,,,,,,
2020-08-01T16:45:00-04:00,156.57,,,,,,,,,,,
2020-08-01T16:50:00-04:00,166.39,,,,,,,,,,,
2020-08-01T16:55:00-04:00,158.47,,,,,,,,,,,
2020-08-01T17:00:00-04:00,87.88,,,,,,,,,,,
2020-08-01T17:05:00-04:00,47.12,,,,,,,,,,,
2020-08-01T17:10:00-04:00,30.69,,,,,,,,,,,
2020-08-01T17:15:00-04:00,29.46,,,,,,,,,,,
2020-08-01T17:20:00-04:00,38.76,,,,,,,,,,,
2020-08-01T17:25:00-04:00,71.11,,,,,,,,,,,
2020-08-01T17:30:00-04:00,159.8,,,,,,,,,,,
2020-08-01T17:35:00-04:00,652.02,,,,,,,,,,,
2020-08-01T17:40:00-04:00,936.03,,,,,,,,,,,
2020-08-01T17:45:00-04:00,908.78,,,,,,,,,,,
2020-08-01T17:50:00-04:00,906.12,,,,,,,,,,,
2020-08-01T17:55:00-04:00,888.48,,,,,,,,,,,
2020-08-01T18:00:00-04:00,878.5,,,,,,,,,,,
2020-08-01T18:05:00-04:00,589.63,,,,,,,,,,,
2020-08-01T18:10:00-04:00,162.44,,,,,,,,,,,
2020-08-01T18:15:00-04:00,138.89,,,,,,,,,,,
2020-08-01T18:20:00-04:00,118.43,,,,,,,,,,,
2020-08-01T18:25:00-04:00,103.56,,,,,,,,,,,
2020-08-01T18:30:00-04:00,100.56,,,,,,,,,,,
2020-08-01T18:35:00-04:00,42.27575,,,,,,,,,,,
2020-08-01T18:40:00-04:00,58.24,,,,,,,,,,,
2020-08-01T18:45:00-04:00,20.99,,,,,,,,,,,
2020-08-01T18:50:00-04:00,14.99055,,,,,,,,,,,
2020-08-01T18:55:00-04:00,10.23,,,,,,,,,,,
2020-08-01T19:00:00-04:00,10.94,,,,,,,,,,,
2020-08-01T19:05:00-04:00,12,,,,,,,,,,,
2020-08-01T19:10:00-04:00,14.35,,,,,,,,,,,
2020-08-01T19:15:00-04:00,15.79,,,,,,,,,,,
2020-08-01T19:20:00-04:00,16.51,,,,,,,,,,,
2020-08-01T19:25:00-04:00,14.41,,,,,,,,,,,
2020-08-01T19:30:00-04:00,9.16015,,,,,,,,,,,
2020-08-01T19:35:00-04:00,10.08,,,,,,,,,,,
2020-08-01T19:40:00-04:00,7.03,,,,,,,,,,,
2020-08-01T19:45:00-04:00,5.2,,,,,,,,,,,
2020-08-01T19:50:00-04:00,0,,,,,,,,,,,
2020-08-01T19:55:00-04:00,1.48,,,,,,,,,,,
2020-08-01T20:00:00-04:00,0.74,,,,,,,,,,,
2020-08-01T20:05:00-04:00,-0.24,,,,,,,,,,,
2020-08-01T20:10:00-04:00,-0.78,,,,,,,,,,,
2020-08-01T20:15:00-04:00,-0.62,,,,,,,,,,,
2020-08-01T20:20:00-04:00,-0.9,,,,,,,,,,,
2020-08-01T20:25:00-04:00,-0.78,,,,,,,,,,,
2020-08-01T20:30:00-04:00,-1.37,,,,,,,,,,,
2020-08-01T20:35:00-04:00,0.21,,,,,,,,,,,
2020-08-01T20:40:00-04:00,-0.2,,,,,,,,,,,
2020-08-01T20:45:00-04:00,-1.55,,,,,,,,,,,
2020-08-01T20:50:00-04:00,-0.78,,,,,,,,,,,
2020-08-01T20:55:00-04:00,-1.08,,,,,,,,,,,
2020-08-01T21:00:00-04:00,-1.33,,,,,,,,,,,
2020-08-01T21:05:00-04:00,-0.88,,,,,,,,,,,
2020-08-01T21:10:00-04:00,-1.01,,,,,,,,,,,
2020-08-01T21:15:00-04:00,-0.51,,,,,,,,,,,
2020-08-01T21:20:00-04:00,-1.28,,,,,,,,,,,
2020-08-01T21:25:00-04:00,-0.14,,,,,,,,,,,
2020-08-01T21:30:00-04:00,-0.55,,,,,,,,,,,
2020-08-01T21:35:00-04:00,-0.77,,,,,,,,,,,
2020-08-01T21:40:00-04:00,-1.25,,,,,,,,,,,
2020-08-01T21:45:00-04:00,-1.42,,,,,,,,,,,
2020-08-01T21:50:00-04:00,-1.15,,,,,,,,,,,
2020-08-01T21:55:00-04:00,-1.33,,,,,,,,,,,
2020-08-01T22:00:00-04:00,0.2,,,,,,,,,,,
2020-08-01T22:05:00-04:00,-0.18,,,,,,,,,,,
2020-08-01T22:10:00-04:00,-1.1,,,,,,,,,,,
2020-08-01T22:15:00-04:00,-0.49,,,,,,,,,,,
2020-08-01T22:20:00-04:00,-1,,,,,,,,,,,
2020-08-01T22:25:00-04:00,-0.32,,,,,,,,,,,
2020-08-01T22:30:00-04:00,-1.09,,,,,,,,,,,
2020-08-01T22:35:00-04:00,-0.83,,,,,,,,,,,
2020-08-01T22:40:00-04:00,-1.31,,,,,,,,,,,
2020-08-01T22:45:00-04:00,-1,,,,,,,,,,,
2020-08-01T22:50:00-04:00,-0.99,,,,,,,,,,,
2020-08-01T22:55:00-04:00,-0.76,,,,,,,,,,,
2020-08-01T23:00:00-04:00,-0.77,,,,,,,,,,,
2020-08-01T23:05:00-04:00,-0.38,,,,,,,,,,,
2020-08-01T23:10:00-04:00,-0.61,,,,,,,,,,,
2020-08-01T23:15:00-04:00,-1.19,,,,,,,,,,,
2020-08-01T23:20:00-04:00,-0.85,,,,,,,,,,,
2020-08-01T23:25:00-04:00,-0.07,,,,,,,,,,,
2020-08-01T23:30:00-04:00,-1.56,,,,,,,,,,,
2020-08-01T23:35:00-04:00,-1.31,,,,,,,,,,,
2020-08-01T23:40:00-04:00,-1.22,,,,,,,,,,,
2020-08-01T23:45:00-04:00,-0.93,,,,,,,,,,,
2020-08-01T23:50:00-04:00,-0.57,,,,,,,,,,,
2020-08-01T23:55:00-04:00,-0.47,,,,,,,,,,,
2020-08-02T00:00:00-04:00,-0.78,,,,,,,,,,,
2020-08-02T00:05:00-04:00,-0.59,,,,,,,,,,,
2020-08-02T00:10:00-04:00,-0.59,,,,,,,,,,,
2020-08-02T00:15:00-04:00,-1.31,,,,,,,,,,,
2020-08-02T00:20:00-04:00,-1.39,,,,,,,,,,,
2020-08-02T00:25:00-04:00,-0.84,,,,,,,,,,,
2020-08-02T00:30:00-04:00,-1.31,,,,,,,,,,,
2020-08-02T00:35:00-04:00,-0.91,,,,,,,,,,,
2020-08-02T00:40:00-04:00,-0.59,,,,,,,,,,,
2020-08-02T00:45:00-04:00,-0.81,,,,,,,,,,,
2020-08-02T00:50:00-04:00,-1.36,,,,,,,,,,,
2020-08-02T00:55:00-04:00,-1.25,,,,,,,,,,,
2020-08-02T01:00:00-04:00,-0.66,,,,,,,,,,,
2020-08-02T01:05:00-04:00,-0.47,,,,,,,,,,,
2020-08-02T01:10:00-04:00,-0.55,,,,,,,,,,,
2020-08-02T01:15:00-04:00,-0.57,,,,,,,,,,,
2020-08-02T01:20:00-04:00,-0.8,,,,,,,,,,,
2020-08-02T01:25:00-04:00,-0.72,,,,,,,,,,,
2020-08-02T01:30:00-04:00,0,,,,,,,,,,,
2020-08-02T01:35:00-04:00,-0.24,,,,,,,,,,,
2020-08-02T01:40:00-04:00,-0.69,,,,,,,,,,,
2020-08-02T01:45:00-04:00,-0.85,,,,,,,,,,,
2020-08-02T01:50:00-04:00,-0.97,,,,,,,,,,,
2020-08-02T01:55:00-04:00,-1.45,,,,,,,,,,,
2020-08-02T02:00:00-04:00,-0.3,,,,,,,,,,,
2020-08-02T02:05:00-04:00,-0.42,,,,,,,,,,,
2020-08-02T02:10:00-04:00,-0.28,,,,,,,,,,,
2020-08-02T02:15:00-04:00,-0.73,,,,,,,,,,,
2020-08-02T02:20:00-04:00,-1.62,,,,,,,,,,,
2020-08-02T02:25:00-04:00,-1.03,,,,,,,,,,,
2020-08-02T02:30:00-04:00,-0.81,,,,,,,,,,,
2020-08-02T02:35:00-04:00,-0.78,,,,,,,,,,,
2020-08-02T02:40:00-04:00,-0.91,,,,,,,,,,,
2020-08-02T02:45:00-04:00,-1.05,,,,,,,,,,,
2020-08-02T02:50:00-04:00,-0.76,,,,,,,,,,,
2020-08-02T02:55:00-04:00,-0.6,,,,,,,,,,,
2020-08-02T03:00:00-04:00,-0.69,,,,,,,,,,,
2020-08-02T03:05:00-04:00,-0.96,,,,,,,,,,,
2020-08-02T03:10:00-04:00,-1.18,,,,,,,,,,,
2020-08-02T03:15:00-04:00,-1.07,,,,,,,,,,,
2020-08-02T03:20:00-04:00,-1.19,,,,,,,,,,,
2020-08-02T03:25:00-04:00,-1.54,,,,,,,,,,,
2020-08-02T03:30:00-04:00,-1.36,,,,,,,,,,,
2020-08-02T03:35:00-04:00,-0.76,,,,,,,,,,,
2020-08-02T03:40:00-04:00,-1.26,,,,,,,,,,,
2020-08-02T03:45:00-04:00,-1.39,,,,,,,,,,,
2020-08-02T03:50:00-04:00,-1.31,,,,,,,,,,,
2020-08-02T03:55:00-04:00,-1.07,,,,,,,,,,,
2020-08-02T04:00:00-04:00,-0.44,,,,,,,,,,,
2020-08-02T04:05:00-04:00,-0.55,,,,,,,,,,,
2020-08-02T04:10:00-04:00,-1.07,,,,,,,,,,,
2020-08-02T04:15:00-04:00,-1.11,,,,,,,,,,,
2020-08-02T04:20:00-04:00,-0.36,,,,,,,,,,,
2020-08-02T04:25:00-04:00,-1.27,,,,,,,,,,,
2020-08-02T04:30:00-04:00,-0.92,,,,,,,,,,,
2020-08-02T04:35:00-04:00,-0.74,,,,,,,,,,,
2020-08-02T04:40:00-04:00,-0.74,,,,,,,,,,,
2020-08-02T04:45:00-04:00,0.06,,,,,,,,,,,
2020-08-02T04:50:00-04:00,-0.82,,,,,,,,,,,
2020-08-02T04:55:00-04:00,-0.61,,,,,,,,,,,
2020-08-02T05:00:00-04:00,-0.63,,,,,,,,,,,
2020-08-02T05:05:00-04:00,-1.12,,,,,,,,,,,
2020-08-02T05:10:00-04:00,-0.95,,,,,,,,,,,
2020-08-02T05:15:00-04:00,-0.94,,,,,,,,,,,
2020-08-02T05:20:00-04:00,-0.24,,,,,,,,,,,
2020-08-02T05:25:00-04:00,0.41,,,,,,,,,,,
2020-08-02T05:30:00-04:00,1.71,,,,,,,,,,,
2020-08-02T05:35:00-04:00,3.35,,,,,,,,,,,
2020-08-02T05:40:00-04:00,7.74,,,,,,,,,,,
2020-08-02T05:45:00-04:00,16.35,,,,,,,,,,,
2020-08-02T05:50:00-04:00,90.82,,,,,,,,,,,
2020-08-02T05:55:00-04:00,29.15,,,,,,,,,,,
2020-08-02T06:00:00-04:00,21.29,,,,,,,,,,,
2020-08-02T06:05:00-04:00,26.92,,,,,,,,,,,
2020-08-02T06:10:00-04:00,27.98,,,,,,,,,,,
2020-08-02T06:15:00-04:00,36.72,,,,,,,,,,,
2020-08-02T06:20:00-04:00,68.05,,,,,,,,,,,
2020-08-02T06:25:00-04:00,106.33,,,,,,,,,,,
2020-08-02T06:30:00-04:00,192.15,,,,,,,,,,,
2020-08-02T06:35:00-04:00,461.2,,,,,,,,,,,
2020-08-02T06:40:00-04:00,520.45,,,,,,,,,,,
2020-08-02T06:45:00-04:00,548.6,,,,,,,,,,,
2020-08-02T06:50:00-04:00,597.27,,,,,,,,,,,
2020-08-02T06:55:00-04:00,492.8,,,,,,,,,,,
2020-08-02T07:00:00-04:00,635.03,,,,,,,,,,,
2020-08-02T07:05:00-04:00,658.33,,,,,,,,,,,
2020-08-02T07:10:00-04:00,680.63,,,,,,,,,,,
2020-08-02T07:15:00-04:00,703.45,,,,,,,,,,,
2020-08-02T07:20:00-04:00,723.37,,,,,,,,,,,
2020-08-02T07:25:00-04:00,740.74,,,,,,,,,,,
2020-08-02T07:30:00-04:00,755.39,,,,,,,,,,,
2020-08-02T07:35:00-04:00,786.19,,,,,,,,,,,
2020-08-02T07:40:00-04:00,793.7,,,,,,,,,,,
2020-08-02T07:45:00-04:00,821.27,,,,,,,,,,,
2020-08-02T07:50:00-04:00,820.13,,,,,,,,,,,
2020-08-02T07:55:00-04:00,839.2,,,,,,,,,,,
2020-08-02T08:00:00-04:00,857.69,,,,,,,,,,,
2020-08-02T08:05:00-04:00,833.64,,,,,,,,,,,
2020-08-02T08:10:00-04:00,878.99,,,,,,,,,,,
2020-08-02T08:15:00-04:00,898.31,,,,,,,,,,,
2020-08-02T08:20:00-04:00,914.48,,,,,,,,,,,
2020-08-02T08:25:00-04:00,926.16,,,,,,,,,,,
2020-08-02T08:30:00-04:00,809.17,,,,,,,,,,,
2020-08-02T08:35:00-04:00,461.35,,,,,,,,,,,
2020-08-02T08:40:00-04:00,352.37,,,,,,,,,,,
2020-08-02T08:45:00-04:00,1163.63,,,,,,,,,,,
2020-08-02T08:50:00-04:00,407.38,,,,,,,,,,,
2020-08-02T08:55:00-04:00,651.19,,,,,,,,,,,
2020-08-02T09:00:00-04:00,526.72,,,,,,,,,,,
2020-08-02T09:05:00-04:00,1182.13,,,,,,,,,,,
2020-08-02T09:10:00-04:00,800.19,,,,,,,,,,,
2020-08-02T09:15:00-04:00,947.43,,,,,,,,,,,
2020-08-02T09:20:00-04:00,1123.18,,,,,,,,,,,
2020-08-02T09:25:00-04:00,350.15,,,,,,,,,,,
2020-08-02T09:30:00-04:00,968.03,,,,,,,,,,,
2020-08-02T09:35:00-04:00,377.13,,,,,,,,,,,
2020-08-02T09:40:00-04:00,571.33,,,,,,,,,,,
2020-08-02T09:45:00-04:00,1118.16,,,,,,,,,,,
2020-08-02T09:50:00-04:00,530.3,,,,,,,,,,,
2020-08-02T09:55:00-04:00,1232.33,,,,,,,,,,,
2020-08-02T10:00:00-04:00,675.58,,,,,,,,,,,
2020-08-02T10:05:00-04:00,725.22,,,,,,,,,,,
2020-08-02T10:10:00-04:00,818.25,,,,,,,,,,,
2020-08-02T10:15:00-04:00,618.4,,,,,,,,,,,
2020-08-02T10:20:00-04:00,841.62,,,,,,,,,,,
2020-08-02T10:25:00-04:00,715.44,,,,,,,,,,,
2020-08-02T10:30:00-04:00,695.34,,,,,,,,,,,
2020-08-02T10:35:00-04:00,1028.31,,,,,,,,,,,
2020-08-02T10:40:00-04:00,1039.98,,,,,,,,,,,
2020-08-02T10:45:00-04:00,1017.95,,,,,,,,,,,
2020-08-02T10:50:00-04:00,1006.85,,,,,,,,,,,
2020-08-02T10:55:00-04:00,985.05,,,,,,,,,,,
2020-08-02T11:00:00-04:00,1011.27,,,,,,,,,,,
2020-08-02T11:05:00-04:00,1064.65,,,,,,,,,,,
2020-08-02T11:10:00-04:00,756.49,,,,,,,,,,,
2020-08-02T11:15:00-04:00,573.46,,,,,,,,,,,
2020-08-02T11:20:00-04:00,623.29,,,,,,,,,,,
2020-08-02T11:25:00-04:00,1031.19,,,,,,,,,,,
2020-08-02T11:30:00-04:00,694.05,,,,,,,,,,,
2020-08-02T11:35:00-04:00,1064.84,,,,,,,,,,,
2020-08-02T11:40:00-04:00,586.97,,,,,,,,,,,
2020-08-02T11:45:00-04:00,512.11,,,,,,,,,,,
2020-08-02T11:50:00-04:00,1112.27,,,,,,,,,,,
2020-08-02T11:55:00-04:00,1050.2,,,,,,,,,,,
2020-08-02T12:00:00-04:00,983.35,,,,,,,,,,,
2020-08-02T12:05:00-04:00,970.91,,,,,,,,,,,
2020-08-02T12:10:00-04:00,959.11,,,,,,,,,,,
2020-08-02T12:15:00-04:00,954.01,,,,,,,,,,,
2020-08-02T12:20:00-04:00,946.04,,,,,,,,,,,
2020-08-02T12:25:00-04:00,960.74,,,,,,,,,,,
2020-08-02T12:30:00-04:00,954.04,,,,,,,,,,,
2020-08-02T12:35:00-04:00,938.09,,,,,,,,,,,
2020-08-02T12:40:00-04:00,939.05,,,,,,,,,,,
2020-08-02T12:45:00-04:00,935.06,,,,,,,,,,,
2020-08-02T12:50:00-04:00,936.47,,,,,,,,,,,
2020-08-02T12:55:00-04:00,935.04,,,,,,,,,,,
2020-08-02T13:00:00-04:00,937.38,,,,,,,,,,,
2020-08-02T13:05:00-04:00,940.35,,,,,,,,,,,
2020-08-02T13:10:00-04:00,946.26,,,,,,,,,,,
2020-08-02T13:15:00-04:00,937.77,,,,,,,,,,,
2020-08-02T13:20:00-04:00,946.98,,,,,,,,,,,
2020-08-02T13:25:00-04:00,939.1,,,,,,,,,,,
2020-08-02T13:30:00-04:00,947.5,,,,,,,,,,,
2020-08-02T13:35:00-04:00,949.93,,,,,,,,,,,
2020-08-02T13:40:00-04:00,950.25,,,,,,,,,,,
2020-08-02T13:45:00-04:00,939.62,,,,,,,,,,,
2020-08-02T13:50:00-04:00,947.25,,,,,,,,,,,
2020-08-02T13:55:00-04:00,945.15,,,,,,,,,,,
2020-08-02T14:00:00-04:00,957.37,,,,,,,,,,,
2020-08-02T14:05:00-04:00,958.83,,,,,,,,,,,
2020-08-02T14:10:00-04:00,966.79,,,,,,,,,,,
2020-08-02T14:15:00-04:00,970.55,,,,,,,,,,,
2020-08-02T14:20:00-04:00,1003.14,,,,,,,,,,,
2020-08-02T14:25:00-04:00,1010.14,,,,,,,,,,,
2020-08-02T14:30:00-04:00,892.99,,,,,,,,,,,
2020-08-02T14:35:00-04:00,1014.06,,,,,,,,,,,
2020-08-02T14:40:00-04:00,965.01,,,,,,,,,,,
2020-08-02T14:45:00-04:00,987.77,,,,,,,,,,,
2020-08-02T14:50:00-04:00,990.22,,,,,,,,,,,
2020-08-02T14:55:00-04:00,987.86,,,,,,,,,,,
2020-08-02T15:00:00-04:00,985.71,,,,,,,,,,,
2020-08-02T15:05:00-04:00,996.8,,,,,,,,,,,
2020-08-02T15:10:00-04:00,807.05,,,,,,,,,,,
2020-08-02T15:15:00-04:00,987.96,,,,,,,,,,,
2020-08-02T15:20:00-04:00,1000,,,,,,,,,,,
2020-08-02T15:25:00-04:00,1015.95,,,,,,,,,,,
2020-08-02T15:30:00-04:00,963.62,,,,,,,,,,,
2020-08-02T15:35:00-04:00,1038.64,,,,,,,,,,,
2020-08-02T15:40:00-04:00,831.72,,,,,,,,,,,
2020-08-02T15:45:00-04:00,1041.46,,,,,,,,,,,
2020-08-02T15:50:00-04:00,831.21,,,,,,,,,,,
2020-08-02T15:55:00-04:00,271.59,,,,,,,,,,,
2020-08-02T16:00:00-04:00,227.44,,,,,,,,,,,
2020-08-02T16:05:00-04:00,706.23,,,,,,,,,,,
2020-08-02T16:10:00-04:00,992.12,,,,,,,,,,,
2020-08-02T16:15:00-04:00,645.06,,,,,,,,,,,
2020-08-02T16:20:00-04:00,391.12,,,,,,,,,,,
2020-08-02T16:25:00-04:00,393.42,,,,,,,,,,,
2020-08-02T16:30:00-04:00,389.89,,,,,,,,,,,
2020-08-02T16:35:00-04:00,228.39,,,,,,,,,,,
2020-08-02T16:40:00-04:00,265.72,,,,,,,,,,,
2020-08-02T16:45:00-04:00,364.89,,,,,,,,,,,
2020-08-02T16:50:00-04:00,386.12,,,,,,,,,,,
2020-08-02T16:55:00-04:00,362.38,,,,,,,,,,,
2020-08-02T17:00:00-04:00,551.87,,,,,,,,,,,
2020-08-02T17:05:00-04:00,327.43,,,,,,,,,,,
2020-08-02T17:10:00-04:00,403.64,,,,,,,,,,,
2020-08-02T17:15:00-04:00,361.48,,,,,,,,,,,
2020-08-02T17:20:00-04:00,452.2,,,,,,,,,,,
2020-08-02T17:25:00-04:00,156.64,,,,,,,,,,,
2020-08-02T17:30:00-04:00,150.89,,,,,,,,,,,
2020-08-02T17:35:00-04:00,158.61,,,,,,,,,,,
2020-08-02T17:40:00-04:00,340.96,,,,,,,,,,,
2020-08-02T17:45:00-04:00,246.36,,,,,,,,,,,
2020-08-02T17:50:00-04:00,122.69,,,,,,,,,,,
2020-08-02T17:55:00-04:00,95.16,,,,,,,,,,,
2020-08-02T18:00:00-04:00,76.49,,,,,,,,,,,
2020-08-02T18:05:00-04:00,61.1,,,,,,,,,,,
2020-08-02T18:10:00-04:00,48.36,,,,,,,,,,,
2020-08-02T18:15:00-04:00,38.12,,,,,,,,,,,
2020-08-02T18:20:00-04:00,30.81,,,,,,,,,,,
2020-08-02T18:25:00-04:00,25.49,,,,,,,,,,,
2020-08-02T18:30:00-04:00,22.73,,,,,,,,,,,
2020-08-02T18:35:00-04:00,22.47,,,,,,,,,,,
2020-08-02T18:40:00-04:00,23.59,,,,,,,,,,,
2020-08-02T18:45:00-04:00,23.99,,,,,,,,,,,
2020-08-02T18:50:00-04:00,23.5,,,,,,,,,,,
2020-08-02T18:55:00-04:00,24.25,,,,,,,,,,,
2020-08-02T19:00:00-04:00,25.51,,,,,,,,,,,
2020-08-02T19:05:00-04:00,29.21,,,,,,,,,,,
2020-08-02T19:10:00-04:00,35.18,,,,,,,,,,,
2020-08-02T19:15:00-04:00,160.96,,,,,,,,,,,
2020-08-02T19:20:00-04:00,214.88,,,,,,,,,,,
2020-08-02T19:25:00-04:00,181.07,,,,,,,,,,,
2020-08-02T19:30:00-04:00,34.79,,,,,,,,,,,
2020-08-02T19:35:00-04:00,70.02,,,,,,,,,,,
2020-08-02T19:40:00-04:00,61.38,,,,,,,,,,,
2020-08-02T19:45:00-04:00,17.81,,,,,,,,,,,
2020-08-02T19:50:00-04:00,4.66,,,,,,,,,,,
2020-08-02T19:55:00-04:00,2.29,,,,,,,,,,,
2020-08-02T20:00:00-04:00,0.93,,,,,,,,,,,
2020-08-02T20:05:00-04:00,-0.08,,,,,,,,,,,
2020-08-02T20:10:00-04:00,-0.37,,,,,,,,,,,
2020-08-02T20:15:00-04:00,-0.26,,,,,,,,,,,
2020-08-02T20:20:00-04:00,-0.58,,,,,,,,,,,
2020-08-02T20:25:00-04:00,-0.43,,,,,,,,,,,
2020-08-02T20:30:00-04:00,-0.67,,,,,,,,,,,
2020-08-02T20:35:00-04:00,-0.85,,,,,,,,,,,
2020-08-02T20:40:00-04:00,-0.69,,,,,,,,,,,
2020-08-02T20:45:00-04:00,-0.62,,,,,,,,,,,
2020-08-02T20:50:00-04:00,-0.73,,,,,,,,,,,
2020-08-02T20:55:00-04:00,-0.84,,,,,,,,,,,